Home   Weather   Pretoria   Past weeks

Flag for South Africa Past Weather in Pretoria, South Africa — Yesterday and Last 2 Weeks

Now
79 °F

Warm.


Feels Like: 80 °F
Forecast: 63 / 87 °F
Wind: 3 mph from East

Location: Waterkloof Lmb

Current Time: Jan 22, 2017 at 12:36:49 pm

Latest Report: Jan 22, 2017 at 12:00 pm


Visibility: N/A

Pressure: 30.30 "Hg (26.01 "Hg at 1338m altitude)

Humidity: 58%

Dew Point: 63 °F

Location of PretoriaLocation

Past Weather in Pretoria — Graph

°F

Pretoria Temperature Yesterday

Maximum temperature yesterday: 91 °F (at 3:00 pm)
Minimum temperature yesterday: 68 °F (at 9:00 pm)
Average temperature yesterday: 77 °F

High & Low Weather Summary for the Past Weeks

 TemperatureHumidityPressure
High93 °F (Jan 20, 1:00 pm)94% (Jan 7, 4:00 pm)30.30 "Hg (Jan 7, 4:00 pm)
Low54 °F (Jan 18, 5:00 am)11% (Jan 18, 3:00 pm)29.95 "Hg (Jan 14, 5:00 pm)
Average73 °F62%30.12 "Hg
* Reported Jan 7 11:00 am — Jan 22 11:00 am, Pretoria, Weather by CustomWeather, © 2017

Note: Actual official high and low records may vary slightly from our data, if they occured in-between our weather recording intervals... More about our weather records

Advertising

Pretoria Weather History for the Previous 24 Hours

Scroll right to see more
 ConditionsComfort  
Time TempWeatherWind HumidityBarometerVisibility
11:00 am
Sun, Jan 22
77 °FWarm.2 mph61%30.30 "HgN/A
10:00 am75 °FMild.5 mph65%30.30 "HgN/A
9:00 am73 °FMild.8 mph69%30.30 "HgN/A
8:00 am72 °FMild.8 mph73%30.30 "HgN/A
7:00 am70 °FMild.8 mph78%30.30 "HgN/A
6:00 am70 °FMild.7 mph78%30.27 "HgN/A
5:00 am70 °FMild.2 mph88%30.24 "HgN/A
3:00 am70 °FMild.5 mph88%30.27 "HgN/A
2:00 am70 °FMild.5 mph88%30.30 "HgN/A
1:00 am70 °FMild.3 mph83%30.30 "HgN/A
12:00 am70 °FMild.3 mph78%30.30 "HgN/A
11:00 pm
Sat, Jan 21
70 °FMild.6 mph83%30.30 "HgN/A
10:00 pm70 °FMild.3 mph78%30.30 "HgN/A
9:00 pm68 °FMild.5 mph83%30.30 "HgN/A
8:00 pm70 °FMild.8 mph78%30.27 "HgN/A
7:00 pm70 °FMild.5 mph78%30.24 "HgN/A
6:00 pm72 °FMild.21 mph65%30.21 "HgN/A
5:00 pm73 °FMild.22 mph61%30.18 "HgN/A
4:00 pm90 °FHot.3 mph36%30.15 "HgN/A
3:00 pm91 °FHot.5 mph36%30.15 "HgN/A
2:00 pm90 °FHot.2 mph41%30.18 "HgN/A
1:00 pm86 °FWarm.6 mph46%30.18 "HgN/A
12:00 pm86 °FWarm.7 mph46%30.21 "HgN/A
Weather by CustomWeather, © 2017

See weather overviewHow to use our weather pages